軌道要素
Epoch 2007 Aug. 8.0 TT = JDT 2454320.5
T 2007 Aug. 22.97599 TT MPCW
q 4.3518440 (2000.0) P Q
n 0.06667844 Peri. 175.04601 +0.99832956 +0.05763877
a 6.0229940 Node 181.66538 -0.05659246 +0.96166377
e 0.2774617 Incl. 7.87763 -0.01163560 +0.26810553
P 14.78
From 226 observations 2007 Sept. 4-2019 June 3, mean residual 0".6.
|